Tracking 19795 objects as of 17-Jul-2019
HD Live streaming from Space Station
objects crossing your sky now

METEOR 2-17 DEB

Track METEOR 2-17 DEB now!
10-day predictions


NORAD ID: 38281
Int'l Code: 1988-005AJ
Perigee: 910.5 km
Apogee: 939.4 km
Inclination: 82.5 °
Period: 103.4 minutes
Semi major axis: 7295 km
RCS: 0.0059 m2 (small)
Launch date: January 30, 1988
Source: Commonwealth of Independent States (former USSR) (CIS)
Launch site: PLESETSK MISSILE AND SPACE COMPLEX (PKMTR)

Note: This is SATELLITE DEBRIS
aabbcc
Your satellite tracking list
Your tracking list is empty




NASA's NSSDC Master Catalog

Two Line Element Set (TLE):
1 38281U 88005AJ  19198.20049582  .00000737  00000-0  55426-3 0  9993
2 38281  82.5374 156.2090 0019851 328.9945  31.0047 13.93091416513674
Source of the keplerian elements: AFSPC